Tracking 18980 objects as of 20-Feb-2018
HD Live streaming from Space Station
objects crossing your sky now

FENGYUN 1C DEB

Track FENGYUN 1C DEB now!
10-day predictions


NORAD ID: 30056
Int'l Code: 1999-025PH
Perigee: 789.0 km
Apogee: 1,277.4 km
Inclination: 98.3 °
Period: 105.7 minutes
Semi major axis: 7404 km
RCS: 0.052 m2 (small)
Launch date: May 10, 1999
Source: People's Republic of China (PRC)
Launch site: Taiyaun Space Center, China (TSC)

Note: This is SATELLITE DEBRIS
aabbcc
Your satellite tracking list
Your tracking list is empty




NASA's NSSDC Master Catalog

Two Line Element Set (TLE):
1 30056U 99025PH  18051.15364375  .00000400  00000-0  38990-3 0  9994
2 30056  98.3396 224.9074 0329824 247.7382 108.8481 13.62664452550439
Source of the keplerian elements: AFSPC